Weather History for Montague, CA

Change the Weather History Date:

Wednesday, October 10, 2012

  Actual Average Record
Temperature  
Mean Temperature 59 °F 54 °F  
Max Temperature 81 °F 71 °F 90 °F (1991)
Min Temperature 37 °F 37 °F 26 °F (1985)
Degree Days  
Heating Degree Days 6 11  
Month to date heating degree days 48 94  
Since 1 July heating degree days 63 236  
Cooling Degree Days 0 0  
Month to date cooling degree days 2 0  
Year to date cooling degree days 621 542  
Growing Degree Days 9 (Base 50)    
Moisture  
Dew Point 31 °F    
Average Humidity 42    
Maximum Humidity 70    
Minimum Humidity 13    
Precipitation  
Precipitation 0.00 in 0.02 in 1.21 in (1962)
Month to date precipitation T 0.16  
Year to date precipitation 7.63 11.80  
Sea Level Pressure  
Sea Level Pressure 29.97 in    
Wind  
Wind Speed 2 mph (North)    
Max Wind Speed 14 mph    
Max Gust Speed 18 mph    
Visibility 10 miles    
Events      
T = Trace of Precipitation, MM = Missing Value Source: NWS Daily Summary

Daily Weather History Graph

Daily Weather History Graph

Search for Another Location

Airport:

Trip Planner

Search our weather history database for the weather conditions in past years. The results will help you decide how hot, cold, wet, or windy it might be!

Date:

Astronomy

Oct. 10, 2012 Rise Set
Actual Time 7:17 AM PDT 6:35 PM PDT
Civil Twilight 6:49 AM PDT 7:03 PM PDT
Nautical Twilight 6:17 AM PDT 7:35 PM PDT
Astronomical Twilight 5:44 AM PDT 8:07 PM PDT
Moon 1:54 AM PDT (10/10) 3:45 PM PDT (10/10)
Length of Visible Light 12h 14m
Length of Day
11h 18m
Waning Crescent, 26% of the Moon is Illuminated
Oct 10
Waning Crescent
Oct 15
New
Oct 21
First Quarter
Oct 29
Full
Nov 6
Last Quarter

Hourly Weather History & Observations

Time (PDT) Temp. Dew Point Humidity Pressure Visibility Wind Dir Wind Speed Gust Speed Precip Events Conditions
12:53 AM 50.0 °F 35.1 °F 57% 30.01 in 10.0 mi SW 3.5 mph - N/A   Clear
1:53 AM 46.9 °F 33.1 °F 59% 30.02 in 10.0 mi Calm Calm - N/A   Clear
2:53 AM 39.9 °F 28.9 °F 65% 30.02 in 10.0 mi Calm Calm - N/A   Clear
3:53 AM 39.9 °F 28.0 °F 63% 30.02 in 10.0 mi Calm Calm - N/A   Clear
4:53 AM 37.9 °F 28.0 °F 68% 30.02 in 10.0 mi Calm Calm - N/A   Clear
5:53 AM 39.9 °F 30.0 °F 68% 30.03 in 10.0 mi Calm Calm - N/A   Clear
6:53 AM 41.0 °F 28.9 °F 62% 30.04 in 10.0 mi Calm Calm - N/A   Clear
7:53 AM 39.0 °F 28.0 °F 65% 30.06 in 10.0 mi Calm Calm - N/A   Clear
8:53 AM 48.9 °F 35.1 °F 59% 30.05 in 10.0 mi Calm Calm - N/A   Clear
9:53 AM 54.0 °F 36.0 °F 51% 30.05 in 10.0 mi Calm Calm - N/A   Clear
10:53 AM 59.0 °F 37.0 °F 44% 30.02 in 10.0 mi Calm Calm - N/A   Clear
11:53 AM 64.0 °F 37.0 °F 37% 29.99 in 10.0 mi South 3.5 mph - N/A   Clear
12:53 PM 68.0 °F 35.1 °F 30% 29.97 in 10.0 mi Calm Calm - N/A   Clear
1:53 PM 73.0 °F 33.1 °F 23% 29.92 in 10.0 mi Calm Calm - N/A   Clear
2:53 PM 78.1 °F 30.9 °F 18% 29.90 in 10.0 mi Calm Calm - N/A   Clear
3:53 PM 80.1 °F 30.9 °F 17% 29.87 in 10.0 mi Calm Calm - N/A   Clear
4:53 PM 81.0 °F 25.0 °F 13% 29.86 in 10.0 mi Calm Calm - N/A   Clear
5:53 PM 75.9 °F 27.0 °F 16% 29.86 in 10.0 mi NNW 12.7 mph - N/A   Clear
6:53 PM 69.1 °F 28.9 °F 22% 29.89 in 10.0 mi NNE 12.7 mph - N/A   Clear
7:53 PM 60.1 °F 30.0 °F 32% 29.91 in 10.0 mi North 9.2 mph - N/A   Clear
8:53 PM 62.1 °F 28.0 °F 28% 29.91 in 10.0 mi Variable 3.5 mph - N/A   Clear
9:53 PM 57.0 °F 26.1 °F 30% 29.91 in 10.0 mi NNE 5.8 mph - N/A   Clear
10:53 PM 53.1 °F 28.0 °F 38% 29.94 in 10.0 mi Calm Calm - N/A   Clear
11:53 PM 48.9 °F 27.0 °F 43% 29.94 in 10.0 mi Calm Calm - N/A   Clear